Temp
24 23 22 22 21 21 21 20 19 19 18 18 17 17 17 16 16 16 16 15 15 15 15 15 14 15 16 14 14 14 14 14
23 23 23 22 22 21 20 20 19 18 18 18 17 17 16 16 16 16 16 15 15 15 14 14 14 14 13 13 13 14 14 14
22 22 22 22 22 21 21 20 19 19 18 17 17 16 16 16 16 16 15 15 15 14 14 14 14 14 13 13 13 14 14 14
21 21 21 21 21 21 21 20 20 19 18 17 17 17 16 16 16 15 15 15 14 14 15 14 14 13 13 12 12 14 14 14
21 21 20 21 21 21 21 20 20 19 18 17 16 16 15 15 15 15 15 15 14 14 14 14 13 13 13 13 12 13 13 14
21 21 21 21 21 21 21 20 20 19 19 17 16 16 15 15 15 15 15 15 14 14 14 13 13 13 13 12 12 13 13 13
21 21 20 20 20 21 20 20 20 19 19 17 16 16 15 15 15 15 15 15 14 14 14 13 13 12 12 11 12 13 13 13
20 20 21 20 20 20 20 20 20 19 19 17 17 15 15 15 15 15 15 14 14 13 13 13 12 12 12 11 12 13 13 13
19 20 20 20 20 20 19 19 19 19 19 17 16 15 14 15 14 15 15 14 14 13 13 12 13 12 12 11 11 13 13 13
21 20 19 19 19 19 19 19 18 18 18 17 16 15 14 14 15 15 14 14 13 13 13 12 12 12 12 11 11 12 12 13
20 21 20 19 19 19 19 18 18 18 18 17 16 15 14 14 14 14 14 13 13 13 13 13 12 11 11 12 11 11 12 12
19 20 21 20 20 19 19 18 17 17 17 17 16 15 14 14 14 14 13 13 12 12 12 12 12 12 12 11 11 11 11 11
20 20 20 20 19 20 18 18 17 17 16 17 16 14 13 13 13 13 13 12 12 12 12 12 11 11 11 11 11 11 11 11
20 20 20 20 20 20 19 19 17 17 17 16 15 14 13 13 12 12 12 12 12 12 12 11 11 11 11 11 10 9 10 10
19 20 19 20 20 19 19 18 18 16 16 14 13 13 13 12 12 11 11 12 12 12 11 12 12 11 11 11 9 9 9 9
19 20 20 19 19 20 19 19 19 18 17 15 15 13 13 12 11 12 12 12 11 12 12 12 12 12 10 10 11 11 9 9
19 20 20 18 20 20 19 18 19 18 15 15 14 14 13 11 11 11 11 11 11 11 11 11 11 11 12 11 10 9 9 9
18 17 18 18 18 19 18 18 19 19 15 15 14 14 12 11 11 11 11 11 10 11 11 11 11 10 11 11 10 9 9 9
13 15 16 16 15 16 16 18 19 18 15 15 14 14 12 12 11 11 11 10 10 10 11 11 11 11 11 10 9 9 10 10
12 14 13 13 14 14 16 18 18 17 15 15 15 15 14 13 11 11 10 10 10 10 9 10 10 11 10 9 9 9 10 10
Height
1458 1461 1465 1468 1471 1474 1476 1478 1481 1483 1484 1484 1486 1488 1490 1493 1494 1496 1499 1503 1505 1507 1509 1511 1512 1515 1518 1524 1524 1524 1525 1528
1457 1459 1462 1466 1468 1472 1475 1477 1479 1481 1483 1484 1484 1486 1487 1490 1492 1494 1497 1500 1503 1506 1509 1511 1510 1513 1520 1522 1525 1523 1526 1527
1456 1458 1460 1462 1466 1469 1472 1475 1477 1479 1480 1483 1483 1484 1485 1488 1490 1492 1495 1498 1502 1504 1505 1508 1511 1510 1516 1518 1524 1524 1524 1526
1455 1457 1458 1460 1463 1467 1469 1472 1474 1476 1478 1480 1481 1482 1483 1485 1487 1489 1493 1496 1499 1501 1503 1506 1508 1509 1512 1515 1521 1523 1523 1525
1454 1456 1457 1458 1459 1463 1465 1468 1471 1473 1474 1477 1479 1480 1481 1483 1484 1486 1489 1493 1495 1498 1501 1502 1504 1506 1508 1511 1517 1522 1522 1524
1452 1453 1454 1456 1458 1459 1462 1464 1468 1470 1471 1473 1476 1477 1479 1480 1481 1483 1485 1489 1492 1494 1497 1498 1501 1501 1505 1509 1513 1519 1521 1524
1450 1449 1451 1452 1455 1456 1458 1460 1463 1466 1468 1470 1473 1475 1476 1477 1479 1480 1482 1485 1489 1491 1494 1497 1498 1500 1504 1507 1510 1518 1519 1523
1448 1446 1447 1447 1450 1453 1454 1456 1459 1462 1464 1467 1469 1473 1474 1475 1476 1477 1479 1482 1486 1489 1493 1494 1496 1500 1501 1506 1509 1516 1519 1521
1440 1442 1443 1442 1444 1448 1449 1451 1455 1456 1459 1463 1465 1469 1470 1472 1473 1474 1476 1480 1483 1487 1490 1493 1496 1499 1502 1504 1508 1514 1517 1520
1432 1434 1436 1438 1439 1441 1445 1447 1450 1452 1455 1459 1461 1465 1467 1469 1470 1472 1474 1477 1481 1484 1487 1490 1494 1497 1500 1501 1506 1510 1515 1519
1422 1425 1428 1430 1433 1437 1439 1441 1446 1448 1451 1454 1457 1461 1463 1465 1467 1469 1472 1474 1477 1481 1484 1487 1491 1495 1498 1502 1504 1507 1511 1516
1412 1415 1419 1423 1428 1433 1432 1437 1441 1445 1446 1449 1453 1457 1459 1461 1464 1466 1469 1471 1474 1477 1481 1485 1489 1492 1496 1500 1503 1505 1509 1511
1402 1405 1410 1413 1418 1423 1426 1428 1434 1439 1441 1444 1448 1452 1455 1458 1460 1462 1465 1468 1471 1473 1477 1481 1485 1490 1495 1497 1500 1501 1503 1507
1394 1396 1401 1405 1409 1414 1418 1421 1427 1433 1435 1439 1442 1447 1450 1454 1456 1459 1462 1465 1468 1470 1473 1476 1481 1485 1489 1493 1496 1497 1499 1501
1387 1388 1391 1395 1399 1404 1412 1416 1421 1428 1432 1433 1438 1442 1445 1449 1452 1455 1459 1460 1463 1466 1468 1471 1475 1480 1484 1488 1491 1493 1495 1499
1379 1382 1383 1387 1391 1396 1402 1407 1414 1418 1422 1427 1432 1437 1441 1445 1448 1451 1454 1456 1459 1461 1464 1467 1471 1474 1479 1482 1485 1486 1489 1496
1371 1375 1377 1381 1384 1390 1395 1402 1408 1414 1422 1424 1428 1433 1437 1441 1444 1446 1449 1452 1454 1457 1460 1463 1467 1470 1472 1476 1479 1480 1485 1484
1364 1368 1371 1374 1379 1382 1388 1395 1401 1409 1415 1420 1424 1428 1431 1435 1438 1441 1444 1447 1450 1453 1456 1458 1461 1465 1468 1470 1473 1475 1475 1480
1360 1362 1365 1368 1374 1378 1383 1389 1396 1403 1410 1416 1419 1422 1425 1429 1432 1435 1439 1443 1447 1449 1451 1453 1457 1459 1461 1464 1466 1469 1472 1479
1359 1363 1364 1366 1372 1378 1384 1387 1394 1399 1404 1410 1414 1417 1420 1425 1429 1432 1436 1439 1441 1444 1447 1449 1452 1455 1456 1457 1457 1464 1468 1476
Wind_Speed
27 27 24 21 19 17 15 15 16 16 17 19 20 21 20 20 20 20 19 18 19 20 19 19 19 16 17 17 21 21 22 23
29 27 25 22 20 18 15 14 14 15 17 18 20 21 21 21 21 20 21 18 19 19 17 21 22 21 20 21 23 22 21 22
28 27 27 25 22 20 18 15 15 15 16 18 20 22 22 23 21 21 20 18 17 20 21 20 23 26 24 23 25 25 25 21
27 26 26 25 24 22 19 18 16 16 16 18 21 22 21 21 20 21 19 18 19 20 20 23 25 23 27 25 27 27 24 21
25 25 25 26 26 25 23 20 18 16 16 18 19 20 20 21 21 21 20 19 21 21 22 25 28 26 30 30 29 27 25 23
26 25 25 24 25 26 25 23 21 19 19 20 22 21 22 22 21 21 21 21 24 23 20 23 28 29 33 30 29 27 25 24
31 29 28 27 27 27 28 26 24 20 20 22 22 22 22 22 21 20 21 21 23 23 19 22 22 31 31 32 29 27 25 24
39 36 32 31 28 25 26 29 27 22 22 22 20 22 22 22 21 21 22 22 23 24 21 18 27 30 30 30 28 28 24 25
44 43 40 38 31 30 27 30 30 27 24 22 19 22 21 20 20 20 22 23 25 24 20 21 27 26 24 30 29 26 24 26
36 41 45 38 33 32 30 29 31 30 27 24 21 22 21 21 21 20 22 23 25 25 22 27 28 25 28 32 31 29 25 23
36 38 43 40 36 33 31 30 33 32 29 26 24 23 22 21 21 20 21 24 26 25 25 28 29 26 26 29 32 31 29 26
30 38 43 41 38 37 33 31 34 33 32 29 25 25 23 22 21 20 23 26 27 27 27 28 31 28 27 28 31 32 31 29
28 32 42 45 44 42 38 36 38 35 34 30 28 27 25 24 23 22 23 28 28 27 27 27 29 31 29 26 28 34 33 31
30 28 35 46 46 45 42 40 41 37 36 33 31 28 26 25 25 25 25 25 27 28 28 29 31 35 31 25 20 19 30 37
31 28 33 40 47 49 45 42 34 33 34 35 33 30 28 26 23 25 28 28 28 26 28 30 35 38 36 24 10 10 28 33
24 28 28 42 50 48 48 47 39 43 47 39 34 32 30 27 23 24 27 29 28 26 26 29 34 35 35 38 29 22 27 22
19 27 29 43 44 47 49 49 42 41 40 39 36 33 30 29 26 26 28 28 27 27 26 31 34 36 37 38 34 27 35 35
17 25 32 39 50 51 51 50 42 38 39 37 36 33 30 29 27 27 30 28 28 26 28 30 32 36 36 37 36 38 37 35
16 25 31 40 48 50 48 47 41 33 34 35 34 31 30 28 27 26 26 25 27 27 26 27 29 33 37 37 44 45 40 30
14 24 28 36 41 40 42 38 35 31 31 32 30 25 21 20 22 24 23 26 25 26 27 30 30 33 34 40 50 43 33 33
Wind_Direction
191 190 190 190 192 196 200 201 203 202 203 204 205 206 208 206 204 207 213 214 212 214 206 199 186 190 203 208 205 189 185 187
191 191 193 195 197 197 201 207 206 206 209 209 210 210 210 211 211 215 218 217 219 219 212 200 188 203 200 206 212 191 189 185
194 195 196 197 199 202 204 207 213 215 213 216 214 214 215 217 216 221 223 221 220 221 214 209 205 197 207 201 212 199 187 186
203 204 204 202 202 208 211 214 217 223 221 220 219 217 217 219 217 221 223 224 219 218 218 218 219 224 205 202 213 200 187 187
213 215 214 212 210 211 212 217 222 225 226 224 221 218 213 214 216 218 220 217 212 214 217 227 226 221 203 201 208 202 185 186
228 224 223 223 222 222 223 221 225 227 228 223 220 219 216 217 216 215 219 220 217 221 223 229 230 232 202 190 203 197 188 189
230 231 228 229 225 226 227 227 225 226 226 223 222 222 218 218 217 217 222 225 218 212 220 217 234 198 195 197 201 196 182 182
236 233 236 230 228 234 238 229 224 222 221 221 220 222 219 218 217 217 221 221 215 210 217 224 201 201 200 200 203 196 196 191
240 235 234 233 232 233 238 228 222 222 219 216 214 217 214 216 218 219 220 218 214 212 217 206 192 198 201 210 210 205 198 205
253 239 235 233 231 230 233 230 224 220 219 214 211 214 213 216 220 217 217 218 217 210 210 198 200 199 204 205 214 216 214 212
246 247 237 232 229 229 234 231 226 222 221 219 214 216 216 218 220 216 217 217 215 212 207 204 201 206 209 214 214 215 218 215
249 242 242 233 231 228 226 230 231 223 221 222 218 219 219 220 219 218 218 218 217 214 212 210 213 217 215 220 220 221 216 208
270 251 241 229 224 226 221 224 229 227 222 222 219 221 222 223 220 220 218 221 222 218 215 217 216 215 216 216 219 219 213 207
266 261 239 233 233 227 222 224 225 230 223 221 217 220 223 225 223 223 222 224 224 221 221 218 219 212 211 216 207 203 209 198
262 260 242 232 226 222 218 218 220 232 228 221 213 219 223 224 220 222 227 229 228 224 220 221 214 214 221 207 180 195 196 195
256 251 245 228 224 222 218 215 214 226 225 221 220 222 222 221 225 227 230 232 230 228 222 223 221 221 214 219 224 206 186 185
245 243 242 228 226 224 218 214 219 228 223 222 217 218 222 223 223 228 231 234 230 230 228 228 224 225 224 220 223 207 193 176
224 232 234 230 222 221 217 214 218 226 223 215 209 214 219 220 224 228 229 230 230 228 232 235 226 230 234 231 231 195 179 178
214 227 228 225 220 220 218 216 219 224 219 210 206 210 216 222 225 225 224 226 232 232 234 228 229 229 232 239 218 200 192 194
209 217 221 220 221 226 222 215 217 223 214 209 208 215 219 222 221 223 226 231 235 234 237 233 233 237 233 215 205 203 203 198